Theta_e
318 321 322 323 324 322 323 323 325 328 328 325 320 317 317 317 318 319 322 322 322 321 319 319 319 319 318 318 317 315 313 313 315 314 312 311 307 298 294 295 296 296 294
311 318 320 321 323 320 323 323 325 327 327 328 325 320 319 317 319 320 320 323 322 322 320 319 319 318 317 316 316 314 313 312 315 311 311 307 305 299 294 294 296 293 292
301 312 318 320 323 322 320 322 324 326 327 327 324 320 319 318 317 316 319 322 323 322 322 321 320 319 318 317 315 315 314 312 314 315 309 304 304 300 295 291 292 292 290
307 305 315 319 321 324 321 321 322 324 326 326 325 323 321 319 321 320 321 321 323 323 323 322 321 321 319 318 317 317 315 314 313 313 312 309 304 300 292 290 289 291 289
307 307 308 318 321 324 322 320 321 322 324 325 325 324 322 323 322 322 320 321 323 324 324 323 322 321 319 319 318 315 316 317 314 313 309 306 302 299 295 287 285 288 290
306 308 307 315 319 322 323 318 318 320 323 324 324 324 323 322 320 319 319 321 322 324 324 323 323 322 321 319 318 318 317 317 317 316 310 306 303 299 294 290 284 285 288
304 306 306 307 316 319 321 320 316 317 322 323 323 323 323 322 321 320 320 320 321 322 324 324 322 322 321 320 320 318 318 317 318 316 313 308 304 301 296 291 288 284 286
301 302 306 304 313 317 320 321 317 316 318 321 322 323 323 322 322 320 321 321 322 323 324 324 324 322 321 320 319 319 318 318 318 317 313 309 305 298 295 292 288 283 284
298 300 300 304 305 315 319 321 321 318 317 317 320 320 321 322 321 321 321 322 323 323 324 323 323 323 321 320 319 318 317 317 317 316 312 308 304 298 295 292 291 287 282
295 295 297 298 300 310 317 320 322 322 321 319 319 319 319 320 321 321 320 321 323 323 322 322 322 322 321 320 319 318 319 316 314 312 306 302 296 295 292 290 290 287 285
292 293 294 295 295 298 308 311 315 318 320 323 324 322 321 320 320 320 320 321 323 323 322 322 322 321 321 321 319 319 317 311 312 302 303 302 292 291 288 289 288 286 285
293 294 294 294 295 295 296 302 309 312 315 317 320 321 324 323 321 320 320 321 322 323 323 322 321 320 321 320 316 316 312 309 308 303 298 296 292 289 290 289 288 287 286
293 294 294 294 294 294 295 295 296 297 301 309 312 314 315 320 322 323 322 322 322 322 320 321 320 319 319 316 314 315 311 308 308 305 298 295 293 290 289 288 287 287 287
295 293 293 293 294 295 295 296 296 297 297 297 298 301 305 309 312 314 316 318 320 321 320 320 320 318 315 312 311 310 308 305 304 302 300 298 294 294 290 287 287 286 285
295 293 293 294 294 295 295 296 296 297 298 298 297 297 298 301 304 305 307 308 309 311 311 310 309 309 307 307 307 307 305 303 300 297 296 295 292 292 290 288 286 286 284
295 295 293 294 295 295 295 295 296 297 298 297 297 297 297 297 299 299 297 297 297 298 298 296 296 298 301 299 298 299 299 296 293 291 290 288 286 290 291 289 289 288 285
297 296 296 295 294 295 296 295 295 297 297 295 293 292 292 294 293 293 293 293 293 293 293 293 293 293 293 294 295 293 292 291 290 289 287 286 286 287 288 289 290 289 289
295 295 295 295 295 295 295 296 294 294 293 291 291 290 291 290 290 292 291 289 289 290 290 291 290 290 290 293 294 291 290 288 288 287 287 286 285 286 286 286 286 285 286
294 294 295 295 293 293 293 292 290 289 290 290 289 289 288 284 287 288 289 290 288 287 287 286 287 286 287 291 293 290 286 286 285 285 286 286 286 287 288 285 285 284 283
293 292 292 291 290 289 289 288 287 287 287 287 287 287 285 283 288 287 286 284 285 285 284 285 285 285 286 290 292 289 285 285 284 284 284 285 285 288 289 285 285 282 283
290 289 288 287 286 286 286 285 284 283 284 284 283 282 283 286 286 286 284 284 284 284 285 284 284 285 285 287 291 289 285 285 283 283 283 284 287 288 288 286 284 284 283
287 286 284 282 282 282 284 282 282 281 279 280 281 283 285 285 285 286 285 285 285 284 284 284 283 283 283 286 290 289 287 287 284 283 283 284 287 287 288 286 286 286 284
283 283 281 279 278 280 282 281 281 281 277 278 281 281 283 285 285 285 284 284 284 283 282 282 282 281 282 284 289 289 287 287 283 283 284 286 287 287 287 288 286 284 282
279 279 278 276 274 275 276 276 278 280 274 275 275 275 275 274 281 283 283 284 283 282 281 282 281 281 282 283 284 285 285 285 284 284 284 285 286 286 285 284 286 284 283
277 276 275 273 271 272 272 271 273 274 275 274 274 274 273 271 272 275 277 281 282 283 283 283 283 281 281 283 285 285 284 283 283 282 282 282 282 282 282 281 282 283 282
274 272 271 270 268 268 268 268 268 271 271 274 274 273 273 271 272 271 272 282 284 285 286 286 282 276 283 285 287 287 286 285 285 277 276 278 279 279 279 279 277 279 278
Wind_Speed
18 16 15 14 11 11 13 14 14 14 10 6 8 6 9 6 5 7 9 9 7 7 6 5 5 5 5 5 5 3 4 4 2 3 4 3 4 3 3 4 5 5 5
10 11 13 12 15 14 15 15 17 16 13 10 6 4 6 5 8 6 5 9 9 9 8 7 6 6 4 5 5 5 3 3 4 3 3 3 2 2 2 2 3 5 4
13 13 15 17 18 17 17 17 18 17 15 14 5 2 3 2 3 3 5 9 10 10 10 9 7 7 6 6 5 6 7 4 4 5 5 3 4 3 1 2 1 4 3
14 13 16 17 19 20 17 18 17 17 15 16 12 13 11 11 10 10 8 9 12 12 12 12 11 10 7 7 8 7 6 3 5 2 1 2 5 4 3 0 2 2 4
15 15 16 18 18 18 18 18 17 17 16 16 17 13 15 10 6 7 9 10 10 13 12 12 11 10 8 10 9 7 9 8 4 4 3 2 1 3 3 3 3 1 3
14 15 15 17 16 17 16 16 17 18 17 16 18 18 18 15 10 8 9 9 9 9 12 13 13 11 10 11 10 11 11 10 8 6 5 5 5 4 4 3 3 4 3
9 11 11 12 14 17 18 15 17 18 18 18 17 19 17 16 17 13 10 10 9 9 13 14 13 11 13 12 11 10 11 10 10 11 8 5 4 4 3 4 2 4 2
8 9 10 11 15 17 19 18 18 18 17 18 18 16 17 12 12 14 12 11 11 12 12 13 15 15 14 13 11 9 9 11 11 13 8 7 7 5 5 6 6 2 2
8 9 9 8 11 13 18 19 17 17 16 17 16 18 17 18 17 17 12 11 12 10 11 13 15 15 14 14 13 11 13 12 12 12 12 9 9 8 8 7 6 7 6
7 4 5 4 6 9 12 15 16 18 19 20 17 15 17 17 17 14 15 15 14 13 12 13 15 15 15 15 15 13 13 13 11 10 9 8 4 7 4 5 5 4 6
6 4 2 1 1 3 6 5 6 8 8 11 13 13 13 15 15 15 14 16 14 14 14 15 15 16 16 16 14 15 13 13 12 8 12 13 6 5 3 3 2 4 5
6 5 3 2 2 4 4 6 7 7 7 6 7 8 10 11 13 14 16 14 14 13 15 14 14 14 14 13 14 15 11 14 13 13 9 10 7 9 8 7 9 6 4
5 2 2 3 3 2 2 3 4 6 6 5 6 6 7 8 11 13 12 13 12 12 10 11 14 15 15 13 13 14 13 13 14 13 13 13 13 12 9 9 9 5 4
4 2 0 1 1 1 1 1 3 3 4 4 6 7 7 7 7 6 7 7 9 11 11 12 14 12 11 10 12 12 11 12 11 12 13 14 14 15 14 12 9 7 6
6 5 3 3 3 3 3 3 4 4 2 4 4 6 5 5 5 6 6 6 6 6 6 6 6 5 6 7 10 10 12 11 10 8 8 8 9 8 11 8 9 11 6
7 7 6 5 3 4 4 5 5 3 2 3 3 2 1 2 2 3 4 4 4 3 3 2 3 4 3 4 5 5 6 5 6 6 3 5 7 11 14 12 13 9 9
8 7 6 5 3 2 4 5 4 2 1 2 1 1 3 2 2 2 3 3 2 2 1 2 0 3 3 2 5 6 3 5 6 6 7 6 5 9 8 14 13 12 13
6 5 4 2 1 2 3 2 3 2 3 3 2 1 1 3 2 1 1 1 1 0 0 1 2 3 4 5 7 8 4 3 4 6 8 9 10 9 9 6 7 6 5
6 5 4 3 3 4 3 3 5 5 4 3 2 1 2 2 2 1 0 2 3 3 3 3 3 2 3 4 6 6 4 3 2 3 4 6 7 12 15 9 8 5 2
6 7 6 4 5 5 3 6 5 6 6 5 4 2 2 4 2 1 3 2 2 2 2 3 3 3 3 4 6 6 3 4 5 4 4 8 8 16 17 9 9 9 9
7 6 7 7 5 5 5 7 6 7 5 4 5 5 4 4 4 3 3 2 3 3 3 3 3 3 2 3 8 10 3 5 5 6 6 6 18 19 17 13 9 9 9
7 6 8 7 7 7 7 8 8 5 4 5 6 5 5 4 3 4 3 3 3 3 3 3 3 3 2 2 6 7 3 6 3 4 4 6 17 17 19 16 17 17 12
6 5 8 9 9 8 7 7 6 5 4 6 6 5 5 5 4 3 3 3 3 3 3 3 3 3 4 2 5 9 7 8 2 2 5 10 14 14 14 17 15 10 5
7 6 8 9 8 7 8 7 6 5 5 6 6 4 5 4 4 3 2 2 1 1 1 1 1 1 2 1 2 1 2 4 1 2 2 6 8 9 6 4 9 6 6
7 7 8 7 8 8 8 7 6 4 5 5 5 5 4 4 4 4 3 3 2 1 0 1 1 2 2 2 4 5 2 1 2 4 2 1 2 3 3 3 3 5 5
7 8 9 11 7 5 5 6 6 5 4 5 4 4 3 3 3 3 4 9 10 9 5 4 1 2 4 4 7 10 6 6 9 3 1 1 3 4 5 5 5 4 3
Wind_Direction
222 212 211 210 207 190 192 198 195 197 185 179 187 191 193 197 205 200 201 197 197 194 192 202 196 191 189 193 187 169 197 242 167 109 75 59 58 59 117 131 128 121 116
228 210 209 204 203 200 200 199 204 197 196 196 195 179 188 208 204 205 195 196 196 193 195 194 197 193 184 200 191 176 188 238 197 142 122 154 144 133 121 65 142 140 134
215 214 209 204 205 205 203 203 203 199 201 200 164 136 127 106 180 191 205 207 204 202 200 198 195 197 194 202 196 195 192 201 218 218 149 157 207 129 129 157 216 153 137
226 211 207 209 206 208 202 206 200 201 200 199 198 201 203 206 213 212 210 206 205 208 203 204 203 206 198 203 206 199 203 180 202 235 207 112 138 170 186 202 170 179 163
230 223 212 208 209 204 203 201 200 200 198 200 206 206 212 215 213 211 208 206 206 212 209 206 205 207 203 210 202 195 206 209 198 189 143 116 120 96 133 198 190 231 194
234 230 215 204 206 205 205 198 197 203 197 195 203 211 216 215 212 205 207 213 211 209 212 207 208 209 209 210 209 210 210 212 219 212 174 170 167 187 156 160 180 179 202
232 232 211 203 204 199 201 198 196 203 198 196 200 209 216 216 220 212 210 209 213 214 214 205 207 210 211 212 211 212 218 211 216 215 202 190 198 151 137 126 150 152 185
249 247 231 203 203 200 200 199 198 206 195 198 205 204 209 212 216 214 212 215 216 218 214 209 213 213 211 212 209 214 219 218 221 219 203 199 197 167 167 165 148 141 166
241 246 253 216 199 203 204 200 199 204 197 200 203 207 208 211 216 221 215 220 223 222 213 207 209 214 213 212 209 214 218 214 218 223 208 196 199 190 188 171 163 163 174
222 241 247 278 221 210 203 202 204 201 199 202 206 211 213 217 221 220 218 218 223 214 207 207 209 213 215 214 211 217 222 213 216 209 198 203 186 201 191 183 175 158 146
183 199 206 213 162 156 178 191 201 215 212 212 214 213 216 218 220 221 221 221 221 217 212 212 214 216 217 219 219 224 223 219 219 197 197 205 172 171 158 175 193 162 143
172 162 152 143 153 133 153 183 190 198 203 201 208 213 218 215 217 221 225 224 226 223 222 219 220 222 222 216 216 222 214 215 212 208 196 196 163 169 170 175 218 179 158
171 167 106 89 93 118 156 186 199 219 221 211 212 224 222 220 223 227 226 226 222 225 220 221 218 220 218 212 216 219 216 220 217 207 198 197 187 192 187 194 186 175 156
232 208 272 276 329 338 318 299 284 244 238 216 215 227 226 218 224 231 232 225 223 220 221 219 224 219 211 212 216 217 216 212 217 213 210 206 201 202 200 185 174 154 146
227 225 218 233 260 290 293 268 263 274 249 231 233 243 247 247 248 245 239 235 220 220 209 207 211 209 207 206 206 221 223 217 218 209 211 208 216 216 175 168 184 147 167
220 221 217 214 229 254 274 287 282 277 216 236 249 281 280 16 20 31 36 46 55 55 65 29 355 319 311 317 245 222 220 222 197 204 170 119 125 152 165 153 163 181 150
201 184 179 167 188 283 314 298 298 312 194 178 154 116 95 92 68 79 78 70 68 62 38 53 326 242 234 246 210 178 192 175 181 173 162 153 158 155 176 158 162 167 168
181 166 160 165 81 19 1 328 18 89 116 106 101 68 114 144 134 88 90 127 150 105 353 295 268 273 277 248 226 190 167 183 184 174 171 168 158 161 143 137 133 153 154
169 174 158 125 85 40 7 67 51 57 68 53 33 22 25 45 77 69 343 14 355 2 352 1 336 304 311 270 225 162 121 128 128 152 154 165 151 152 147 142 144 129 138
159 127 105 87 72 11 42 80 58 61 42 12 358 30 127 161 181 77 65 41 50 32 15 358 357 319 305 278 208 163 126 131 119 87 80 114 126 151 157 155 163 183 198
99 88 78 72 32 18 69 67 52 35 356 4 29 34 34 36 40 60 46 54 51 52 34 19 354 340 305 300 193 169 156 154 144 160 159 162 163 172 185 164 181 200 153
94 89 91 70 37 26 60 59 46 350 5 39 49 37 34 43 47 63 49 48 54 45 20 359 350 349 340 269 200 171 147 160 164 186 173 176 181 190 190 179 190 191 171
98 84 93 81 48 39 42 67 16 7 31 61 53 40 35 40 40 57 55 42 27 15 1 343 342 340 338 337 206 157 161 179 170 136 178 184 189 199 200 200 193 188 172
98 93 90 73 57 34 44 36 12 14 55 63 50 41 51 38 30 47 54 79 76 37 29 322 341 340 312 8 60 69 157 236 305 170 165 193 185 187 177 178 186 191 197
83 78 84 85 58 31 32 12 358 14 61 57 44 40 41 39 32 28 19 13 326 295 333 264 188 193 248 247 203 166 163 85 90 78 72 150 172 186 178 195 206 198 195
97 87 71 64 41 22 25 12 0 30 71 67 46 41 43 30 39 31 356 10 24 25 1 345 92 310 288 288 215 198 192 169 156 71 113 224 196 206 214 216 218 220 218